Location: Unspecified
(0.0000°N, 0.0000°E)
Time: 22:15:25
(UTC+00:00)

Amateur Radio Satellites - All Passes

Search period start: 27 April 2015 21:45
Search period end: 28 April 2015 21:45
Location: Unspecified, 0.0000°N, 0.0000°E

Satellite Date Start Highest point End Downlink Frequencies (MHz)
Time Altitude Azimuth
JUGNU 27 Apr 21:46:42 21:51:39 26° 343° (NNW) 21:56:33 437.505
CUBEBUG 2 27 Apr 21:54:32 21:58:21 33° 259° (W) 22:02:12 437.445
SRMSAT 27 Apr 21:58:33 22:04:26 55° 339° (NNW) 22:10:16 437.500
QB50P1 27 Apr 22:00:32 22:03:28 19° 100° (E) 22:06:36 145.935-145.965
DELFI C3 27 Apr 22:14:52 22:17:48 18° 260° (W) 22:20:33 145.870
UWE-3 27 Apr 22:16:45 22:20:03 22° 260° (W) 22:23:16 435.000/436.395/437.385
ANTELSAT 27 Apr 22:17:53 22:22:29 89° 277° (W) 22:26:59 437.575/2403.000
FUNcube-1 27 Apr 22:20:20 22:23:54 26° 260° (W) 22:27:25 145.935
UKube-1 27 Apr 22:21:35 22:25:48 50° 258° (WSW) 22:29:58 .
HUMSAT D 27 Apr 22:23:55 22:28:00 57° 259° (WSW) 22:32:07 437.325/437.525
RS-15 27 Apr 22:24:51 22:31:44 18° 64° (ENE) 22:39:51 29.354- 29.394
ESTCUBE 1 27 Apr 22:26:05 22:30:02 31° 79° (E) 22:34:03 437.505/2401.250
QB50P2 27 Apr 22:26:16 22:30:23 46° 101° (E) 22:34:32 145.880/145.840
Cosmos 2491 27 Apr 22:35:29 22:43:26 38° 275° (W) 22:51:13 435.465 / 435.565
NANOSAT C BR1 27 Apr 22:42:42 22:46:59 80° 100° (E) 22:51:17 145.865
POPSAT HIP 1 27 Apr 22:46:53 22:51:11 88° 282° (WNW) 22:55:30 437.405
ZACube-1 27 Apr 22:49:13 22:50:17 11° 261° (W) 22:51:00 437.345
50 SAT 27 Apr 22:51:05 22:54:48 39° 259° (W) 22:58:30 437.505
CUBEBUG 1 27 Apr 22:56:09 23:00:30 71° 79° (ENE) 23:04:48 437.445
VELOX 1 27 Apr 22:57:14 23:01:25 41° 258° (WSW) 23:05:32 145.980
BUGSAT 1 27 Apr 23:00:02 23:04:16 90° 288° (WNW) 23:08:33 437.445
TIGRISAT 27 Apr 23:08:19 23:11:39 19° 281° (W) 23:14:47 435.000
UNISAT 6 27 Apr 23:14:07 23:16:58 16° 281° (W) 23:19:33 437.425
YUBILEINY 27 Apr 23:14:34 23:20:47 20° 264° (W) 23:26:25 435.215
DUCHIFAT 1 27 Apr 23:16:22 23:20:15 33° 281° (W) 23:24:04 145.980
AISAT 27 Apr 23:16:45 23:20:11 22° 259° (W) 23:23:30 437.250
POLYITAN 1 27 Apr 23:18:10 23:21:58 30° 281° (W) 23:25:42 437.675
AIST 1 27 Apr 23:19:45 23:24:06 69° 94° (E) 23:28:23
TISAT 1 27 Apr 23:30:04 23:33:32 26° 79° (E) 23:37:06 437.305
QB50P1 27 Apr 23:36:17 23:39:13 17° 280° (W) 23:41:59 145.935-145.965
JUGNU 27 Apr 23:38:44 23:41:24 13° 351° (N) 23:43:59 437.505
VERMONT LUNAR 27 Apr 23:42:56 23:46:11 52° 223° (SW) 23:49:24 437.305
SRMSAT 27 Apr 23:49:20 23:53:54 22° 344° (NNW) 23:58:24 437.500
ESTCUBE 1 28 Apr 00:05:02 00:06:49 12° 260° (W) 00:08:15 437.505/2401.250
SPROUT 28 Apr 00:08:18 00:12:30 57° 259° (WSW) 00:16:41 437.525
BEESAT 3 28 Apr 00:09:58 00:13:58 77° 292° (WNW) 00:17:59 437.485
BEESAT 2 28 Apr 00:14:13 00:18:14 87° 299° (WNW) 00:22:18 435.950
Cosmos 2504 28 Apr 00:23:42 00:31:06 82° 86° (E) 00:38:17 435.465 / 435.565
RS-15 28 Apr 00:32:27 00:44:31 75° 248° (WSW) 00:56:46 29.354- 29.394
PHONESAT 2.4 28 Apr 00:33:07 00:36:38 79° 223° (SW) 00:40:09 2401.200-2431.200
Oscar 19 28 Apr 00:33:20 00:37:48 30° 102° (ESE) 00:42:21 437.125/150
ITUPSAT 1 28 Apr 00:37:51 00:41:29 22° 79° (E) 00:45:16 437.325
BEESAT 28 Apr 01:06:12 01:10:54 55° 78° (ENE) 01:15:35 436.000
TISAT 1 28 Apr 01:07:44 01:09:14 11° 260° (W) 01:10:24 437.305
SWISSCUBE 28 Apr 01:09:01 01:13:48 68° 79° (E) 01:18:33 437.505
ITAMSAT 1 28 Apr 01:13:40 01:17:20 20° 101° (ESE) 01:21:13 435.822/435.867
AIST 2 28 Apr 01:28:48 01:32:38 35° 293° (WNW) 01:36:29 435.215
SRMSAT 28 Apr 01:41:56 01:43:53 11° 352° (N) 01:45:46 437.500
Gurwin Techsat 1B 28 Apr 01:55:20 02:00:30 56° 102° (ESE) 02:05:44 435.225
KKS-1 28 Apr 02:01:56 02:05:54 33° 79° (ENE) 02:09:54 437.445
Oscar 19 28 Apr 02:13:46 02:17:02 16° 281° (W) 02:20:02 437.125/150
ITUPSAT 1 28 Apr 02:15:48 02:19:16 19° 259° (W) 02:22:31 437.325
JAS-2 28 Apr 02:42:57 02:45:37 15° 100° (E) 02:48:34 435.910
CUSAT 1 28 Apr 02:48:10 02:54:17 24° 81° (E) 03:00:22 437.405
STARS 28 Apr 02:50:28 02:54:51 87° 258° (WSW) 02:59:13 437.465
ITAMSAT 1 28 Apr 02:52:29 02:56:43 25° 281° (WNW) 03:00:49 435.822/435.867
HORYU 2 28 Apr 02:59:49 03:04:04 46° 102° (ESE) 03:08:21 437.375
JUGNU 28 Apr 03:18:43 03:21:38 14° 11° (N) 03:24:37 437.505
AO-7 28 Apr 03:26:26 03:34:35 62° 105° (ESE) 03:42:51 29.400- 29.500
GONETS M04 28 Apr 03:34:43 03:43:33 87° 264° (W) 03:52:20
DANDE 28 Apr 03:40:50 03:49:11 58° 84° (E) 03:57:01 436.750
MOZHAYETS 4 28 Apr 04:21:41 04:26:21 89° 258° (WSW) 04:30:59
JAS-2 28 Apr 04:26:00 04:30:45 31° 282° (WNW) 04:35:14 435.910
CUSAT 1 28 Apr 04:29:12 04:37:04 45° 266° (W) 04:44:03 437.405
Cosmos 2499 28 Apr 04:38:53 04:44:50 30° 85° (E) 04:50:55 435.465 / 435.565
AUBIESAT-1 28 Apr 05:04:30 05:06:38 14° 75° (ENE) 05:09:07 437.475
JUGNU 28 Apr 05:06:14 05:11:16 29° 18° (NNE) 05:16:20 437.505
PCSat 28 Apr 05:17:35 05:22:20 33° 111° (ESE) 05:27:12 145.827
SRMSAT 28 Apr 05:20:58 05:24:23 16° 12° (NNE) 05:27:53 437.500
AO-7 28 Apr 05:22:09 05:27:19 17° 284° (WNW) 05:31:51 29.400- 29.500
DANDE 28 Apr 05:26:15 05:32:16 20° 264° (W) 05:37:28 436.750
STRAND 1 28 Apr 05:35:40 05:37:44 13° 80° (E) 05:40:11 437.568
PRISM 28 Apr 05:36:12 05:38:40 16° 80° (E) 05:41:21 437.425
M-CUBED/EXP-1 PRIME 28 Apr 05:56:39 06:01:11 85° 75° (ENE) 06:05:57 437.505
CUTE-I 28 Apr 05:59:02 06:04:22 86° 102° (ESE) 06:09:45 437.470
CUBESAT XI-V 28 Apr 06:05:06 06:09:48 87° 79° (E) 06:14:26 437.345
Cubesat XI-IV 28 Apr 06:09:27 06:14:45 71° 282° (WNW) 06:20:06 437.490
Cosmos 2499 28 Apr 06:32:09 06:37:51 24° 265° (W) 06:43:12 435.465 / 435.565
AUBIESAT-1 28 Apr 06:37:10 06:41:14 32° 256° (WSW) 06:45:23 437.475
ISS 28 Apr 06:47:58 06:48:22 10° 128° (SE) 06:48:58 145.825
BRITE-PL 28 Apr 06:48:35 06:51:22 15° 100° (E) 06:54:34 437.365/2234.400
JUGNU 28 Apr 06:54:34 07:00:26 79° 21° (NNE) 07:06:19 437.505
PCSat 28 Apr 07:02:18 07:05:41 16° 292° (WNW) 07:08:46 145.827
SRMSAT 28 Apr 07:08:44 07:14:04 35° 19° (NNE) 07:19:26 437.500
PRISM 28 Apr 07:10:55 07:14:02 19° 259° (W) 07:16:58 437.425
STRAND 1 28 Apr 07:12:08 07:16:52 37° 258° (WSW) 07:21:30 437.568
O/OREOS (USA 219) 28 Apr 07:13:14 07:14:37 12° 73° (ENE) 07:16:20 437.305
SEEDS 28 Apr 07:37:27 07:38:51 12° 100° (E) 07:40:34 437.485
CANX-2 28 Apr 07:48:13 07:51:44 26° 100° (E) 07:55:20 2200.000
AAUSAT CUBESAT 2 28 Apr 07:49:10 07:49:43 10° 99° (E) 07:50:38 437.432
SO-50 28 Apr 07:51:32 07:52:54 12° 114° (ESE) 07:54:36 436.795
CUTE 1.7 + AOD 2 28 Apr 07:56:46 08:00:28 31° 101° (E) 08:04:14 437.475
GOMX 1 28 Apr 07:58:44 08:04:07 60° 101° (E) 08:09:32 467.674
HO-68 28 Apr 08:10:50 08:17:52 64° 104° (ESE) 08:24:57 435.675
ISS 28 Apr 08:22:01 08:24:38 22° 306° (NW) 08:27:12 145.825
DOVE 4 28 Apr 08:22:55 08:28:13 73° 101° (E) 08:33:28 437.250
BRITE-PL 28 Apr 08:24:27 08:29:43 42° 281° (W) 08:35:03 437.365/2234.400
CUBEBUG 2 28 Apr 08:32:06 08:34:51 16° 99° (E) 08:37:50 437.445
COMPASS 1 28 Apr 08:40:44 08:44:53 86° 100° (E) 08:49:03 437.405
DELFI C3 28 Apr 08:41:14 08:43:33 16° 100° (E) 08:46:06 145.870
JUGNU 28 Apr 08:44:07 08:49:32 38° 199° (SSW) 08:54:55 437.505
CINEMA 3 28 Apr 08:48:23 08:53:20 66° 101° (E) 08:58:12 145.822/145.860
O/OREOS (USA 219) 28 Apr 08:50:06 08:53:57 28° 254° (WSW) 08:57:43 437.305
UWE-3 28 Apr 08:51:55 08:55:29 23° 100° (E) 08:59:07 435.000/436.395/437.385
FUNcube-1 28 Apr 08:54:59 08:57:56 18° 100° (E) 09:01:03 145.935
SRMSAT 28 Apr 08:57:24 09:03:20 85° 202° (SSW) 09:09:18 437.500
SEEDS 28 Apr 09:11:04 09:14:33 25° 280° (W) 09:17:58 437.485
Cosmos 2491 28 Apr 09:12:06 09:20:35 54° 86° (E) 09:29:08 435.465 / 435.565
Oscar 11 28 Apr 09:13:09 09:17:27 76° 101° (ESE) 09:21:45 145.826/435.025
ZACube-1 28 Apr 09:20:14 09:24:29 42° 101° (E) 09:28:43 437.345
AAUSAT CUBESAT 2 28 Apr 09:21:41 09:25:15 27° 280° (W) 09:28:45 437.432
CANX-2 28 Apr 09:25:58 09:27:34 11° 279° (W) 09:28:50 2200.000
SO-50 28 Apr 09:29:21 09:33:18 31° 293° (WNW) 09:37:18 436.795
VELOX 1 28 Apr 09:35:19 09:37:02 12° 100° (E) 09:39:03 145.980
TIGRISAT 28 Apr 09:44:28 09:48:11 28° 79° (E) 09:52:03 435.000
YUBILEINY 28 Apr 09:48:46 09:57:38 89° 274° (W) 10:06:28 435.215
DUCHIFAT 1 28 Apr 09:49:38 09:50:51 11° 80° (E) 09:52:23 145.980
UNISAT 6 28 Apr 09:49:44 09:53:42 35° 79° (E) 09:57:50 437.425
DX 1 28 Apr 09:51:14 09:55:33 61° 102° (ESE) 09:59:54 434.975-435.025
POLYITAN 1 28 Apr 09:51:19 09:53:12 13° 80° (E) 09:55:22 437.675
AISAT 28 Apr 09:52:32 09:56:04 24° 101° (E) 09:59:43 437.250
HO-68 28 Apr 10:02:21 10:05:34 13° 282° (WNW) 10:08:06 435.675
QB50P1 28 Apr 10:06:58 10:10:12 23° 80° (E) 10:13:33 145.935-145.965
CUBEBUG 2 28 Apr 10:07:35 10:11:27 24° 281° (W) 10:15:07 437.445
RS-15 28 Apr 10:10:39 10:14:03 12° 119° (ESE) 10:18:47 29.354- 29.394
DELFI C3 28 Apr 10:15:50 10:18:35 17° 280° (W) 10:21:11 145.870
UWE-3 28 Apr 10:28:54 10:31:53 16° 281° (W) 10:34:37 435.000/436.395/437.385
HUMSAT D 28 Apr 10:29:39 10:33:45 47° 281° (W) 10:37:49 437.325/437.525
UKube-1 28 Apr 10:30:45 10:34:47 37° 281° (WNW) 10:38:47 .
FUNcube-1 28 Apr 10:30:46 10:34:09 20° 281° (W) 10:37:19 145.935
ANTELSAT 28 Apr 10:31:32 10:35:51 56° 259° (W) 10:40:16 437.575/2403.000
QB50P2 28 Apr 10:33:10 10:37:19 59° 78° (ENE) 10:41:27 145.880/145.840
JUGNU 28 Apr 10:35:21 10:39:00 17° 193° (SSW) 10:42:35 437.505
ESTCUBE 1 28 Apr 10:40:02 10:44:21 48° 101° (ESE) 10:48:44 437.505/2401.250
Cosmos 2504 28 Apr 10:46:23 10:48:28 11° 96° (E) 10:51:38 435.465 / 435.565
SRMSAT 28 Apr 10:47:24 10:52:39 32° 198° (SSW) 10:57:53 437.500
NANOSAT C BR1 28 Apr 10:49:18 10:53:31 81° 261° (W) 10:57:41 145.865
50 SAT 28 Apr 10:49:27 10:53:13 41° 281° (WNW) 10:56:57 437.505
POPSAT HIP 1 28 Apr 10:53:47 10:57:58 69° 258° (WSW) 11:02:08 437.405
BUGSAT 1 28 Apr 11:04:04 11:08:07 78° 257° (WSW) 11:12:08 437.445
CUBEBUG 1 28 Apr 11:06:25 11:10:49 81° 281° (WNW) 11:15:15 437.445
VELOX 1 28 Apr 11:09:36 11:13:29 28° 281° (W) 11:17:17 145.980
Cosmos 2491 28 Apr 11:11:28 11:17:25 19° 264° (W) 11:22:42 435.465 / 435.565
VERMONT LUNAR 28 Apr 11:16:51 11:20:09 79° 320° (NW) 11:23:27 437.305
TIGRISAT 28 Apr 11:22:58 11:24:51 12° 261° (W) 11:26:26 435.000
DUCHIFAT 1 28 Apr 11:23:03 11:26:35 26° 259° (W) 11:30:03 145.980
POLYITAN 1 28 Apr 11:25:37 11:29:01 23° 259° (W) 11:32:17 437.675
AIST 1 28 Apr 11:26:28 11:30:45 82° 266° (W) 11:35:06
AISAT 28 Apr 11:29:48 11:32:33 15° 280° (W) 11:35:02 437.250
TISAT 1 28 Apr 11:35:44 11:39:32 32° 101° (E) 11:43:25 437.305
QB50P1 28 Apr 11:43:45 11:45:58 13° 260° (W) 11:47:55 145.935-145.965
AIST 2 28 Apr 11:52:21 11:53:10 11° 65° (ENE) 11:54:17 435.215
BEESAT 3 28 Apr 12:04:48 12:08:45 68° 248° (WSW) 12:12:39 437.485
BEESAT 2 28 Apr 12:09:46 12:13:46 76° 248° (WSW) 12:17:43 435.950
PHONESAT 2.4 28 Apr 12:12:39 12:16:10 84° 137° (SE) 12:19:42 2401.200-2431.200
RS-15 28 Apr 12:15:54 12:27:02 86° 292° (WNW) 12:37:55 29.354- 29.394
SPROUT 28 Apr 12:16:33 12:20:41 43° 281° (W) 12:24:48 437.525
Cosmos 2504 28 Apr 12:33:17 12:41:55 78° 274° (W) 12:50:48 435.465 / 435.565
SRMSAT 28 Apr 12:39:08 12:42:26 15° 191° (SSW) 12:45:39 437.500
ITUPSAT 1 28 Apr 12:59:28 13:03:56 43° 102° (ESE) 13:08:29 437.325
Oscar 19 28 Apr 13:06:26 13:11:35 80° 77° (ENE) 13:16:43 437.125/150
AIST 2 28 Apr 13:28:08 13:31:40 27° 247° (WSW) 13:35:06 435.215
BEESAT 28 Apr 13:28:11 13:32:56 75° 282° (WNW) 13:37:41 436.000
SWISSCUBE 28 Apr 13:31:15 13:35:56 61° 281° (WNW) 13:40:38 437.505
ITAMSAT 1 28 Apr 13:47:30 13:52:34 54° 78° (ENE) 13:57:38 435.822/435.867
KKS-1 28 Apr 14:14:16 14:18:36 51° 101° (E) 14:22:59 437.445
GONETS M04 28 Apr 14:14:25 14:20:23 22° 96° (E) 14:26:54
JAS-2 28 Apr 14:14:54 14:17:42 13° 78° (ENE) 14:21:17 435.910
JUGNU 28 Apr 14:17:37 14:19:08 11° 173° (S) 14:20:45 437.505
Gurwin Techsat 1B 28 Apr 14:33:59 14:39:08 49° 258° (WSW) 14:44:14 435.225
STARS 28 Apr 15:01:47 15:06:10 60° 282° (WNW) 15:10:33 437.465
HORYU 2 28 Apr 15:12:30 15:16:58 72° 78° (ENE) 15:21:25 437.375
CUSAT 1 28 Apr 15:33:33 15:36:00 29° 93° (E) 15:38:49 437.405
AO-7 28 Apr 15:52:48 16:01:08 85° 255° (WSW) 16:09:25 29.400- 29.500
JAS-2 28 Apr 15:54:59 16:02:33 74° 258° (WSW) 16:10:24 435.910
JUGNU 28 Apr 16:04:43 16:09:00 21° 165° (SSE) 16:13:23 437.505
GONETS M04 28 Apr 16:08:53 16:17:09 46° 274° (W) 16:25:19
SRMSAT 28 Apr 16:20:34 16:22:59 13° 171° (S) 16:25:31 437.500
DANDE 28 Apr 16:32:54 16:35:09 23° 279° (W) 16:37:34 436.750
MOZHAYETS 4 28 Apr 16:38:48 16:43:13 51° 281° (WNW) 16:47:38
Cosmos 2499 28 Apr 16:46:08 16:54:18 46° 94° (E) 17:02:42 435.465 / 435.565
CUTE-I 28 Apr 17:00:54 17:03:59 16° 79° (E) 17:07:22 437.470
Cubesat XI-IV 28 Apr 17:10:36 17:14:35 22° 79° (E) 17:18:44 437.490
PRISM 28 Apr 17:39:43 17:42:23 17° 101° (E) 17:45:13 437.425
JUGNU 28 Apr 17:52:37 17:58:22 50° 160° (SSE) 18:04:10 437.505
PCSat 28 Apr 17:53:12 17:58:35 78° 250° (WSW) 18:03:59 145.827
M-CUBED/EXP-1 PRIME 28 Apr 18:00:30 18:04:02 89° 101° (E) 18:07:25 437.505
STRAND 1 28 Apr 18:05:55 18:10:25 33° 102° (ESE) 18:15:02 437.568
SRMSAT 28 Apr 18:08:09 18:12:57 25° 163° (SSE) 18:17:48 437.500
CUBESAT XI-V 28 Apr 18:23:40 18:28:11 52° 281° (W) 18:32:43 437.345
CUTE-I 28 Apr 18:39:13 18:43:59 32° 258° (WSW) 18:48:37 437.470
Cosmos 2499 28 Apr 18:40:33 18:47:23 24° 276° (W) 18:53:48 435.465 / 435.565
AUBIESAT-1 28 Apr 18:40:39 18:43:28 22° 285° (WNW) 18:46:06 437.475
Cubesat XI-IV 28 Apr 18:50:15 18:54:34 24° 258° (WSW) 18:58:42 437.490
PRISM 28 Apr 19:15:00 19:17:44 17° 280° (W) 19:20:17 437.425
BRITE-PL 28 Apr 19:15:19 19:18:24 21° 80° (E) 19:21:36 437.365/2234.400
O/OREOS (USA 219) 28 Apr 19:22:22 19:25:46 21° 106° (ESE) 19:29:18 437.305
JUGNU 28 Apr 19:41:34 19:47:27 60° 339° (NNW) 19:53:22 437.505
SEEDS 28 Apr 19:42:29 19:44:48 15° 80° (E) 19:47:22 437.485
STRAND 1 28 Apr 19:46:37 19:49:32 15° 281° (W) 19:52:08 437.568
AAUSAT CUBESAT 2 28 Apr 19:52:34 19:54:18 13° 80° (E) 19:56:19 437.432
ISS 28 Apr 19:54:30 19:57:32 38° 234° (SW) 20:00:33 145.825
CANX-2 28 Apr 19:54:46 19:58:37 33° 80° (E) 20:02:32 2200.000
SRMSAT 28 Apr 19:56:27 20:02:24 62° 159° (SSE) 20:08:21 437.500
SO-50 28 Apr 20:02:26 20:06:16 24° 66° (ENE) 20:10:08 436.795
HO-68 28 Apr 20:02:32 20:09:27 54° 77° (ENE) 20:16:26 435.675
CUTE 1.7 + AOD 2 28 Apr 20:03:17 20:07:17 39° 79° (E) 20:11:18 437.475
GOMX 1 28 Apr 20:23:46 20:27:53 66° 259° (WSW) 20:32:00 467.674
YUBILEINY 28 Apr 20:28:35 20:34:23 21° 84° (E) 20:40:45 435.215
DELFI C3 28 Apr 20:41:55 20:44:27 17° 80° (E) 20:47:10 145.870
CUBEBUG 2 28 Apr 20:44:14 20:47:25 21° 79° (E) 20:50:45 437.445
DOVE 4 28 Apr 20:44:56 20:48:59 56° 259° (W) 20:53:05 437.250
COMPASS 1 28 Apr 20:45:41 20:49:55 79° 259° (WSW) 20:54:09 437.405
BRITE-PL 28 Apr 20:54:45 20:56:53 13° 260° (W) 20:58:44 437.365/2234.400
O/OREOS (USA 219) 28 Apr 21:01:59 21:05:04 17° 286° (WNW) 21:07:56 437.305
UWE-3 28 Apr 21:03:06 21:06:48 30° 79° (E) 21:10:38 435.000/436.395/437.385
FUNcube-1 28 Apr 21:04:27 21:07:46 23° 79° (E) 21:11:14 145.935
CINEMA 3 28 Apr 21:05:30 21:09:40 74° 259° (W) 21:13:56 145.822/145.860
UKube-1 28 Apr 21:06:32 21:07:53 12° 80° (E) 21:09:33 .
SEEDS 28 Apr 21:17:11 21:20:30 21° 260° (W) 21:23:40 437.485
Oscar 11 28 Apr 21:22:03 21:26:24 80° 259° (WSW) 21:30:44 145.826/435.025
AAUSAT CUBESAT 2 28 Apr 21:26:20 21:29:48 24° 259° (W) 21:33:10 437.432
ZACube-1 28 Apr 21:30:21 21:34:30 58° 79° (E) 21:38:45 437.345
JUGNU 28 Apr 21:32:01 21:36:46 24° 343° (NNW) 21:41:27 437.505
